Tracking 19475 objects as of 18-Jan-2019
HD Live streaming from Space Station
objects crossing your sky now

TOMS EP

Track TOMS EP now!
10-day predictions
TOMS EP is classified as:


NORAD ID: 23940
Int'l Code: 1996-037A
Perigee: 696.7 km
Apogee: 735.1 km
Inclination: 98.2 °
Period: 99.0 minutes
Semi major axis: 7086 km
RCS: 1.8693 m2 (large)
Launch date: July 2, 1996
Source: United States (US)
Launch site: AIR FORCE WESTERN TEST RANGE (AFWTR)
aabbcc
Your satellite tracking list
Your tracking list is empty




NASA's NSSDC Master Catalog

Two Line Element Set (TLE):
1 23940U 96037A   19017.89187148  .00000046  00000-0  21127-4 0  9994
2 23940  98.1714 147.8072 0027101 288.6112  71.2143 14.55189436198178
Source of the keplerian elements: AFSPC